Home   Weather   Saint-Georges   Past weeks

Flag for Canada Past Weather in Saint-Georges, Quebec, Canada — Yesterday and Last 2 Weeks

Now
54 °F

Cool.


Feels Like: 54 °F
Forecast: 50 / 71 °F
Wind: 2 mph from North

Location: Beauceville

Current Time: Aug 17, 2017 at 12:02:06 am

Latest Report: Aug 16, 2017 at 11:00 pm


Visibility: N/A

Pressure: 29.97 "Hg

Humidity: 76%

Dew Point: 46 °F

Location of Saint-GeorgesLocation

Past Weather in Saint-Georges — Graph

°F

Saint-Georges Temperature Yesterday

Maximum temperature yesterday: 66 °F (at 2:00 pm)
Minimum temperature yesterday: 56 °F (at 9:00 pm)
Average temperature yesterday: 61 °F

High & Low Weather Summary for the Past Weeks

 TemperatureHumidityPressure
High86 °F (Aug 2, 4:00 pm)100% (Aug 5, 10:00 pm)30.24 "Hg (Aug 5, 10:00 pm)
Low47 °F (Aug 9, 5:00 am)32% (Aug 2, 2:00 pm)29.74 "Hg (Aug 13, 1:00 am)
Average64 °F77%29.98 "Hg
* Reported Aug 1 10:00 pm — Aug 16 10:00 pm, Saint-Georges. Weather by CustomWeather, © 2017

Note: Actual official high and low records may vary slightly from our data, if they occured in-between our weather recording intervals... More about our weather records

Advertising

Saint-Georges Weather History for the Previous 24 Hours

Scroll right to see more
 ConditionsComfort  
Time TempWeatherWind HumidityBarometerVisibility
10:00 pm
Wed, Aug 16
56 °FCool.2 mph69%29.97 "HgN/A
9:00 pm56 °FCool.2 mph71%29.97 "HgN/A
8:00 pm58 °FCool.6 mph64%29.97 "HgN/A
7:00 pm62 °FRefreshingly cool.5 mph53%29.96 "HgN/A
6:00 pm64 °FMild.6 mph48%29.95 "HgN/A
5:00 pm64 °FMild.7 mph45%29.94 "HgN/A
4:00 pm64 °FMild.8 mph47%29.95 "HgN/A
3:00 pm66 °FMild.7 mph47%29.95 "HgN/A
2:00 pm66 °FMild.9 mph49%29.95 "HgN/A
1:00 pm65 °FMild.7 mph49%29.96 "HgN/A
12:00 pm63 °FMild.8 mph50%29.96 "HgN/A
11:00 am62 °FRefreshingly cool.7 mph55%29.96 "HgN/A
10:00 am61 °FRefreshingly cool.8 mph58%29.96 "HgN/A
9:00 am60 °FCool.6 mph60%29.96 "HgN/A
8:00 am56 °FCool.9 mph79%29.95 "HgN/A
7:00 am57 °FCool.9 mph85%29.92 "HgN/A
6:00 am57 °FCool.2 mph89%29.89 "HgN/A
5:00 am60 °FCool.1 mph93%29.86 "HgN/A
4:00 am59 °FCool.1 mph94%29.84 "HgN/A
3:00 am60 °FCool.1 mph94%29.83 "HgN/A
2:00 am59 °FCool.2 mph90%29.82 "HgN/A
1:00 am59 °FCool.2 mph97%29.82 "HgN/A
12:00 am60 °FCool.1 mph97%29.81 "HgN/A
Weather by CustomWeather, © 2017

See weather overviewHow to use our weather pages